Time,TemperatureF,DewpointF,PressureIn,WindDirection,WindDirectionDegrees,WindSpeedMPH,WindSpeedGustMPH,Humidity,HourlyPrecipIn,Conditions,Clouds,dailyrainin,SolarRadiationWatts/m^2,SoftwareType,DateUTC
2013-02-18 00:01:00,21.6,18.0,30.22,NW,323,6.0,7.0,85,0.00,,,0.00,0,weatherlink.com 1.10,2013-02-18 07:01:00,
2013-02-18 00:15:00,20.9,17.0,30.22,WNW,286,0.0,4.0,86,0.00,,,0.00,0,weatherlink.com 1.10,2013-02-18 07:15:00,
2013-02-18 00:31:00,20.4,17.0,30.23,NW,313,3.0,4.0,86,0.00,,,0.00,0,weatherlink.com 1.10,2013-02-18 07:31:00,
2013-02-18 00:46:00,19.8,17.0,30.24,NW,315,2.0,6.0,87,0.00,,,0.00,0,weatherlink.com 1.10,2013-02-18 07:46:00,
2013-02-18 01:01:00,20.7,17.0,30.25,NW,321,6.0,11.0,87,0.00,,,0.00,0,weatherlink.com 1.10,2013-02-18 08:01:00,
2013-02-18 01:16:00,21.1,17.0,30.25,NW,320,10.0,12.0,84,0.00,,,0.00,0,weatherlink.com 1.10,2013-02-18 08:16:00,
2013-02-18 01:31:00,20.6,17.0,30.26,NW,310,6.0,11.0,84,0.00,,,0.00,0,weatherlink.com 1.10,2013-02-18 08:31:00,
2013-02-18 01:46:00,20.2,16.0,30.27,NW,317,5.0,9.0,84,0.00,,,0.00,0,weatherlink.com 1.10,2013-02-18 08:46:00,
2013-02-18 02:01:00,19.8,16.0,30.28,NW,315,7.0,11.0,85,0.00,,,0.00,0,weatherlink.com 1.10,2013-02-18 09:01:00,
2013-02-18 02:16:00,19.9,16.0,30.29,NNW,340,7.0,10.0,85,0.00,,,0.00,0,weatherlink.com 1.10,2013-02-18 09:16:00,
2013-02-18 02:31:00,20.2,16.0,30.29,NNW,329,9.0,12.0,83,0.00,,,0.00,0,weatherlink.com 1.10,2013-02-18 09:31:00,
2013-02-18 02:49:00,19.9,16.0,30.29,NW,323,10.0,12.0,85,0.00,,,0.00,0,weatherlink.com 1.10,2013-02-18 09:49:00,
2013-02-18 03:02:00,19.9,16.0,30.29,NNW,332,6.0,12.0,83,0.00,,,0.00,0,weatherlink.com 1.10,2013-02-18 10:02:00,
2013-02-18 03:16:00,20.0,15.0,30.30,NNW,344,4.0,10.0,82,0.00,,,0.00,0,weatherlink.com 1.10,2013-02-18 10:16:00,
2013-02-18 03:31:00,20.2,16.0,30.30,North,355,5.0,11.0,82,0.00,,,0.00,0,weatherlink.com 1.10,2013-02-18 10:31:00,
2013-02-18 03:46:00,20.4,16.0,30.30,NNW,343,8.0,10.0,82,0.00,,,0.00,0,weatherlink.com 1.10,2013-02-18 10:46:00,
2013-02-18 04:01:00,20.6,16.0,30.30,NW,319,4.0,10.0,82,0.00,,,0.00,0,weatherlink.com 1.10,2013-02-18 11:01:00,
2013-02-18 04:16:00,20.5,16.0,30.31,NNW,327,6.0,11.0,82,0.00,,,0.00,0,weatherlink.com 1.10,2013-02-18 11:16:00,
2013-02-18 04:33:00,20.7,16.0,30.32,NNW,342,7.0,11.0,82,0.00,,,0.00,0,weatherlink.com 1.10,2013-02-18 11:33:00,
2013-02-18 04:47:00,20.9,16.0,30.33,NNW,336,6.0,11.0,82,0.00,,,0.00,0,weatherlink.com 1.10,2013-02-18 11:47:00,
2013-02-18 05:02:00,20.9,16.0,30.34,NNW,337,4.0,7.0,82,0.00,,,0.00,0,weatherlink.com 1.10,2013-02-18 12:02:00,
2013-02-18 05:17:00,20.9,17.0,30.34,NNW,335,5.0,9.0,83,0.00,,,0.00,0,weatherlink.com 1.10,2013-02-18 12:17:00,
2013-02-18 05:33:00,20.9,17.0,30.34,North,351,6.0,9.0,83,0.00,,,0.00,0,weatherlink.com 1.10,2013-02-18 12:33:00,
2013-02-18 05:47:00,20.9,17.0,30.34,NNW,342,5.0,9.0,83,0.00,,,0.00,0,weatherlink.com 1.10,2013-02-18 12:47:00,
2013-02-18 06:02:00,20.7,17.0,30.35,NNW,335,5.0,10.0,84,0.00,,,0.00,0,weatherlink.com 1.10,2013-02-18 13:02:00,
2013-02-18 06:17:00,-999.0,-99.9,30.36,North,-999,-999.0,-999.0,-999,0.00,,,0.00,,weatherlink.com 1.10,2013-02-18 13:17:00,
2013-02-18 06:33:00,-999.0,-99.9,30.36,North,-999,-999.0,-999.0,-999,0.00,,,0.00,,weatherlink.com 1.10,2013-02-18 13:33:00,
2013-02-18 06:47:00,-999.0,-99.9,30.36,North,-999,-999.0,-999.0,-999,0.00,,,0.00,,weatherlink.com 1.10,2013-02-18 13:47:00,
2013-02-18 07:03:00,-999.0,-99.9,30.36,North,-999,-999.0,-999.0,-999,0.00,,,0.00,,weatherlink.com 1.10,2013-02-18 14:03:00,
2013-02-18 07:17:00,-999.0,-99.9,30.37,North,-999,-999.0,-999.0,-999,0.00,,,0.00,,weatherlink.com 1.10,2013-02-18 14:17:00,
2013-02-18 07:33:00,-999.0,-99.9,30.37,North,-999,-999.0,-999.0,-999,0.00,,,0.00,,weatherlink.com 1.10,2013-02-18 14:33:00,
2013-02-18 07:48:00,-999.0,-99.9,30.38,North,-999,-999.0,-999.0,-999,0.00,,,0.00,,weatherlink.com 1.10,2013-02-18 14:48:00,
2013-02-18 08:03:00,21.2,15.0,30.38,North,5,9.0,15.0,77,0.00,,,0.00,26,weatherlink.com 1.10,2013-02-18 15:03:00,
2013-02-18 08:18:00,21.1,15.0,30.39,NW,309,5.0,15.0,76,0.00,,,0.00,63,weatherlink.com 1.10,2013-02-18 15:18:00,
2013-02-18 08:32:00,20.9,15.0,30.40,North,355,5.0,11.0,78,0.00,,,0.00,91,weatherlink.com 1.10,2013-02-18 15:32:00,
2013-02-18 08:48:00,21.2,13.0,30.41,NNW,329,7.0,11.0,72,0.00,,,0.00,127,weatherlink.com 1.10,2013-02-18 15:48:00,
2013-02-18 09:03:00,21.5,14.0,30.41,NNW,346,5.0,10.0,72,0.00,,,0.00,113,weatherlink.com 1.10,2013-02-18 16:03:00,
2013-02-18 09:18:00,21.6,14.0,30.41,NE,51,2.0,10.0,72,0.00,,,0.00,146,weatherlink.com 1.10,2013-02-18 16:18:00,
2013-02-18 09:33:00,21.5,14.0,30.42,NNW,332,8.0,16.0,74,0.00,,,0.00,193,weatherlink.com 1.10,2013-02-18 16:33:00,
2013-02-18 09:48:00,20.7,14.0,30.43,NNE,30,3.0,14.0,75,0.00,,,0.00,185,weatherlink.com 1.10,2013-02-18 16:48:00,
2013-02-18 10:04:00,20.2,15.0,30.43,East,81,8.0,13.0,80,0.00,,,0.00,533,weatherlink.com 1.10,2013-02-18 17:04:00,
2013-02-18 10:19:00,20.7,15.0,30.43,ENE,68,7.0,8.0,78,0.00,,,0.00,431,weatherlink.com 1.10,2013-02-18 17:19:00,
2013-02-18 10:34:00,21.4,15.0,30.43,ENE,64,5.0,9.0,76,0.00,,,0.00,459,weatherlink.com 1.10,2013-02-18 17:34:00,
2013-02-18 10:49:00,20.6,14.0,30.44,NE,43,11.0,12.0,76,0.00,,,0.00,482,weatherlink.com 1.10,2013-02-18 17:49:00,
2013-02-18 11:04:00,20.6,14.0,30.45,NE,46,2.0,11.0,74,0.00,,,0.00,517,weatherlink.com 1.10,2013-02-18 18:04:00,
2013-02-18 11:19:00,20.3,13.0,30.45,ENE,72,9.0,11.0,74,0.00,,,0.00,520,weatherlink.com 1.10,2013-02-18 18:19:00,
2013-02-18 11:34:00,20.4,14.0,30.46,East,83,7.0,11.0,75,0.00,,,0.00,543,weatherlink.com 1.10,2013-02-18 18:34:00,
2013-02-18 11:49:00,21.1,13.0,30.46,NNW,331,7.0,8.0,72,0.00,,,0.00,216,weatherlink.com 1.10,2013-02-18 18:49:00,
2013-02-18 12:04:00,20.8,13.0,30.46,NE,51,2.0,11.0,72,0.00,,,0.00,202,weatherlink.com 1.10,2013-02-18 19:04:00,
2013-02-18 12:19:00,20.3,12.0,30.46,NNE,24,4.0,10.0,70,0.00,,,0.00,559,weatherlink.com 1.10,2013-02-18 19:19:00,
2013-02-18 12:34:00,19.8,12.0,30.46,ENE,67,3.0,10.0,71,0.00,,,0.00,554,weatherlink.com 1.10,2013-02-18 19:34:00,
2013-02-18 12:49:00,20.2,12.0,30.46,NE,43,5.0,7.0,69,0.00,,,0.00,554,weatherlink.com 1.10,2013-02-18 19:49:00,
2013-02-18 13:04:00,20.0,12.0,30.46,NNE,24,3.0,12.0,71,0.00,,,0.00,543,weatherlink.com 1.10,2013-02-18 20:04:00,
2013-02-18 13:20:00,20.5,12.0,30.47,NW,317,5.0,10.0,70,0.00,,,0.00,540,weatherlink.com 1.10,2013-02-18 20:20:00,
2013-02-18 13:35:00,19.5,11.0,30.47,WNW,299,3.0,12.0,70,0.00,,,0.00,526,weatherlink.com 1.10,2013-02-18 20:35:00,
2013-02-18 13:50:00,20.4,12.0,30.47,NW,321,3.0,8.0,70,0.00,,,0.00,531,weatherlink.com 1.10,2013-02-18 20:50:00,
2013-02-18 14:50:00,19.2,12.0,30.48,NW,322,8.0,12.0,72,0.00,,,0.00,425,weatherlink.com 1.10,2013-02-18 21:50:00,
2013-02-18 15:20:00,19.4,12.0,30.48,NNW,347,4.0,10.0,73,0.00,,,0.00,341,weatherlink.com 1.10,2013-02-18 22:20:00,
2013-02-18 15:34:00,18.8,12.0,30.48,NE,34,5.0,11.0,73,0.00,,,0.00,301,weatherlink.com 1.10,2013-02-18 22:34:00,
2013-02-18 15:49:00,18.4,11.0,30.48,ENE,58,7.0,10.0,72,0.00,,,0.00,253,weatherlink.com 1.10,2013-02-18 22:49:00,
2013-02-18 16:04:00,18.3,11.0,30.48,East,98,5.0,7.0,72,0.00,,,0.00,213,weatherlink.com 1.10,2013-02-18 23:04:00,
2013-02-18 16:19:00,18.5,11.0,30.49,East,79,5.0,7.0,72,0.00,,,0.00,160,weatherlink.com 1.10,2013-02-18 23:19:00,
2013-02-18 16:35:00,18.2,11.0,30.49,ENE,65,5.0,8.0,74,0.00,,,0.00,114,weatherlink.com 1.10,2013-02-18 23:35:00,
2013-02-18 16:49:00,17.9,11.0,30.49,East,96,5.0,9.0,74,0.00,,,0.00,72,weatherlink.com 1.10,2013-02-18 23:49:00,
2013-02-18 17:05:00,17.3,11.0,30.49,East,84,7.0,8.0,75,0.00,,,0.00,37,weatherlink.com 1.10,2013-02-19 00:05:00,
2013-02-18 17:19:00,15.7,10.0,30.50,East,80,5.0,11.0,77,0.00,,,0.00,12,weatherlink.com 1.10,2013-02-19 00:19:00,
2013-02-18 17:35:00,14.7,9.0,30.50,East,94,8.0,12.0,79,0.00,,,0.00,0,weatherlink.com 1.10,2013-02-19 00:35:00,
2013-02-18 17:50:00,13.5,8.0,30.51,ENE,76,4.0,12.0,80,0.00,,,0.00,0,weatherlink.com 1.10,2013-02-19 00:50:00,
2013-02-18 18:05:00,12.1,7.0,30.51,ENE,69,8.0,15.0,80,0.00,,,0.00,0,weatherlink.com 1.10,2013-02-19 01:05:00,
2013-02-18 18:20:00,11.2,6.0,30.52,ESE,110,8.0,14.0,81,0.00,,,0.00,0,weatherlink.com 1.10,2013-02-19 01:20:00,
2013-02-18 18:36:00,10.7,6.0,30.52,East,94,6.0,14.0,82,0.00,,,0.00,0,weatherlink.com 1.10,2013-02-19 01:36:00,
2013-02-18 18:50:00,10.7,6.0,30.53,SE,126,6.0,12.0,81,0.00,,,0.00,0,weatherlink.com 1.10,2013-02-19 01:50:00,
2013-02-18 19:05:00,10.5,6.0,30.53,ESE,118,8.0,11.0,81,0.00,,,0.00,0,weatherlink.com 1.10,2013-02-19 02:05:00,
2013-02-18 19:51:00,9.4,5.0,30.54,ESE,109,8.0,14.0,81,0.00,,,0.00,0,weatherlink.com 1.10,2013-02-19 02:51:00,
2013-02-18 20:21:00,8.8,4.0,30.55,East,93,9.0,13.0,81,0.00,,,0.00,0,weatherlink.com 1.10,2013-02-19 03:21:00,
2013-02-18 20:35:00,7.9,4.0,30.55,ESE,122,8.0,16.0,82,0.00,,,0.00,0,weatherlink.com 1.10,2013-02-19 03:35:00,
2013-02-18 20:51:00,7.3,3.0,30.56,ENE,64,12.0,18.0,83,0.00,,,0.00,0,weatherlink.com 1.10,2013-02-19 03:51:00,
2013-02-18 21:09:00,6.7,3.0,30.57,East,92,9.0,16.0,83,0.00,,,0.00,0,weatherlink.com 1.10,2013-02-19 04:09:00,
2013-02-18 21:21:00,6.1,2.0,30.58,ESE,118,10.0,13.0,82,0.00,,,0.00,0,weatherlink.com 1.10,2013-02-19 04:21:00,
2013-02-18 21:36:00,5.7,2.0,30.58,East,95,10.0,19.0,83,0.00,,,0.00,0,weatherlink.com 1.10,2013-02-19 04:36:00,
2013-02-18 21:51:00,5.5,1.0,30.59,SE,140,7.0,14.0,83,0.00,,,0.00,0,weatherlink.com 1.10,2013-02-19 04:51:00,
2013-02-18 22:06:00,5.1,1.0,30.59,East,91,10.0,16.0,83,0.00,,,0.00,0,weatherlink.com 1.10,2013-02-19 05:06:00,
2013-02-18 22:37:00,5.1,1.0,30.59,SE,136,11.0,16.0,83,0.00,,,0.00,0,weatherlink.com 1.10,2013-02-19 05:37:00,
2013-02-18 22:52:00,5.2,1.0,30.59,ESE,118,11.0,16.0,84,0.00,,,0.00,0,weatherlink.com 1.10,2013-02-19 05:52:00,
2013-02-18 23:07:00,5.1,1.0,30.59,South,169,9.0,19.0,84,0.00,,,0.00,0,weatherlink.com 1.10,2013-02-19 06:07:00,
2013-02-18 23:22:00,5.4,2.0,30.59,East,101,14.0,18.0,84,0.00,,,0.00,0,weatherlink.com 1.10,2013-02-19 06:22:00,
2013-02-18 23:37:00,5.7,2.0,30.59,SE,134,10.0,21.0,84,0.00,,,0.00,0,weatherlink.com 1.10,2013-02-19 06:37:00,
2013-02-18 23:53:00,5.6,2.0,30.59,ESE,104,18.0,19.0,83,0.00,,,0.00,0,weatherlink.com 1.10,2013-02-19 06:53:00,